This is the latest recevied weather packets stored in our database for station/object E27IHO-13. If no packets are shown the sender has not sent any weather packets the latest 10 day(s).
| Time | Temp. | Humidity | Pressure | Rain* | Wind** | Luminosity | Snow |
|---|---|---|---|---|---|---|---|
| 1777686198 | 33.33° C | 61% | 1011 hPa | - | - | 0 W/m² | - |
| 1777685876 | 33.33° C | 62% | 1011 hPa | - | - | 0 W/m² | - |
| 1777685554 | 33.33° C | 63% | 1011 hPa | - | - | 0 W/m² | - |
| 1777685232 | 33.33° C | 63% | 1011 hPa | - | - | 0 W/m² | - |
| 1777684910 | 32.78° C | 63% | 1011 hPa | - | - | 0 W/m² | - |
| 1777684588 | 33.33° C | 63% | 1011 hPa | - | - | 0 W/m² | - |
| 1777684266 | 33.33° C | 64% | 1011 hPa | - | - | 0 W/m² | - |
| 1777683944 | 32.78° C | 65% | 1011 hPa | - | - | 0 W/m² | - |
| 1777683622 | 32.78° C | 66% | 1011 hPa | - | - | 0 W/m² | - |
| 1777683300 | 31.67° C | 68% | 1011 hPa | - | - | 0 W/m² | - |
| 1777682978 | 31.67° C | 69% | 1011 hPa | - | - | 0 W/m² | - |
| 1777682656 | 31.67° C | 69% | 1011 hPa | - | - | 0 W/m² | - |
| 1777682334 | 31.67° C | 69% | 1010 hPa | - | - | 0 W/m² | - |
| 1777682013 | 31.67° C | 68% | 1010 hPa | - | - | 0 W/m² | - |
| 1777681690 | 32.78° C | 66% | 1010 hPa | - | - | 0 W/m² | - |
| 1777681368 | 32.78° C | 64% | 1010 hPa | - | - | 0 W/m² | - |
| 1777681046 | 33.33° C | 62% | 1010 hPa | - | - | 0 W/m² | - |
| 1777680724 | 34.44° C | 60% | 1010 hPa | - | - | 0 W/m² | - |
| 1777680403 | 33.33° C | 63% | 1010 hPa | - | - | 0 W/m² | - |
| 1777680080 | 32.78° C | 65% | 1010 hPa | - | - | 0 W/m² | - |
| 1777679758 | 31.11° C | 71% | 1010 hPa | - | - | 0 W/m² | - |
| 1777679436 | 30.56° C | 73% | 1010 hPa | - | - | 0 W/m² | - |
| 1777679114 | 30.56° C | 72% | 1010 hPa | - | - | 0 W/m² | - |
| 1777678792 | 30° C | 75% | 1010 hPa | - | - | 0 W/m² | - |
| 1777678470 | 30° C | 75% | 1010 hPa | - | - | 0 W/m² | - |
* Rain since midnight (hover to see other rain measurements)
** Current wind speed in m/s (hover to see current wind gust speed)